Hourly Data Report for June 02, 2021

ATIKOKAN (AUT)
ONTARIO
Current Station Operator: ECCC - MSC

48°45'40.000" N
91°37'41.000" W
389.30 m
6020LPQ
71747
WCH

Download Data

Hourly Data (June 2021)
Hourly Data Report for June 2, 2021
TIME
LST
Temp Definition
°C
Dew Point Definition
°C
Rel Hum Definition
%
Precip. Amount Definition
mm

Wind Dir Definition
10's deg

Wind Spd Definition
km/h
Visibility Definition
km
Stn Press Definition
kPa
Hmdx Definition


Wind Chill Definition


Weather Definition


00:00 8.2 7.2 94 0.0 8 2   96.95     LegendNANA
01:00 7.4 6.6 95 0.0   0   96.92     LegendNANA
02:00 6.7 6.2 97 0.0   0   96.91     LegendNANA
03:00 6.1 5.8 98 0.0   0   96.90     LegendNANA
04:00 5.6 5.3 98 0.0   0   96.87     LegendNANA
05:00 6.3 6.1 98 0.0 0 1   96.87     LegendNANA
06:00 9.8 9.5 98 0.0 0 1   96.85     LegendNANA
07:00 15.8 10.1 69 0.0 0 1   96.83     LegendNANA
08:00 19.2 8.4 49 0.0 24 9   96.81     LegendNANA
09:00 20.5 9.6 50 0.0 24 11   96.75     LegendNANA
10:00 21.6 9.7 47 0.0 21 12   96.71     LegendNANA
11:00 22.3 7.2 38 0.0 24 11   96.64     LegendNANA
12:00 23.3 7.8 37 0.0 22 10   96.57     LegendNANA
13:00 24.2 7.9 35 0.0 18 11   96.50 25   LegendNANA
14:00 25.2 7.4 32 0.0 23 10   96.44 25   LegendNANA
15:00 25.3 7.3 32 0.0 22 12   96.37 25   LegendNANA
16:00 25.6 7.4 31 0.0 27 10   96.30 26   LegendNANA
17:00 25.8 8.4 33 0.0 22 10   96.25 26   LegendNANA
18:00 25.2 8.2 34 0.0 24 8   96.20 26   LegendNANA
19:00 23.7 8.8 39 0.0 22 6   96.18     LegendNANA
20:00 18.0 9.8 59 0.0 0 1   96.16     LegendNANA
21:00 18.6 9.7 56 0.0 25 4   96.17     LegendNANA
22:00 15.5 10.7 73 0.0 25 2   96.14     LegendNANA
23:00 14.1 10.9 81 0.0   0   96.12     LegendNANA

Notes on Data Quality.

Legend

  • E = Estimated
  • M = Missing
  • NA = Not Available*
  • [empty] = Indicates an unobserved value
Date modified: